This demonstration page uses our WeatherBlox Daily Observations layout. Learn more.

Left ArrowRight Arrow

41.12389, -100.76542

Hourly Observations for August 28, 2019

Temp ( °F °C ) Dew Point ( °F °C ) Humidity (%) Winds ( mph kmh ) Pressure ( in mb ) Visibility ( mi km ) Precip ( " mm )
12:53 am 00:53 Clear 53 11.7 50 10 89 89 WSW 3 6 30.12 1020 10 16 0.00 0.00
1:53 am 01:53 undefined 50 10 48 8.9 93 93 WSW 5 7 30.12 1020 10 16 0.00 0.00
2:53 am 02:53 Clear 51 10.6 49 9.4 92 92 Calm 30.12 1020 10 16 0.00 0.00
3:46 am 03:46 Mostly Clear with Mist and Fog 49 9.4 47 8.3 93 93 Calm 30.15 1021 3 4 0.00 0.00
3:53 am 03:53 Mostly Clear with Mist and Fog 49 9.4 47 8.3 93 93 Calm 30.12 1020 2 3 0.00 0.00
3:58 am 03:58 Partly Cloudy with Mist and Fog 49 9.4 47 8.3 93 93 Calm 30.15 1021 3 5 0.00 0.00
4:10 am 04:10 Mostly Cloudy with Mist and Fog 49 9.4 47 8.3 93 93 Calm 30.15 1021 5 8 0.00 0.00
4:28 am 04:28 Partly Cloudy 49 9.4 47 8.3 93 93 Calm 30.15 1021 8 13 0.00 0.00
4:38 am 04:38 Mostly Clear with Mist and Fog 49 9.4 47 8.3 93 93 Calm 30.14 1021 2 3 0.00 0.00
4:41 am 04:41 Mostly Cloudy with Mist and Fog 49 9.4 47 8.3 93 93 Calm 30.14 1021 1 2 0.00 0.00
4:50 am 04:50 Mostly Cloudy with Mist and Fog 48 9 46 8 94 94 Calm 30.14 1021 1 1 0.00 0.00
4:53 am 04:53 Mostly Cloudy with Mist and Fog 48 8.9 47 8.3 96 96 Calm 30.12 1020 1 2 0.00 0.00
5:05 am 05:05 Mostly Cloudy with Mist and Fog 49 9.4 47 8.3 93 93 Calm 30.14 1021 1 2 0.00 0.00
5:15 am 05:15 Cloudy with Mist and Fog 49 9.4 48 8.9 97 97 Calm 30.14 1021 2 2 0.00 0.00
5:19 am 05:19 Mostly Cloudy with Mist and Fog 49 9.4 47 8.3 93 93 Calm 30.14 1021 1 1 0.00 0.00
5:35 am 05:35 Mostly Cloudy with Fog 50 10 48 8.9 93 93 Calm 30.13 1020 0 0 0.00 0.00
5:53 am 05:53 Mostly Cloudy with Fog 50 10 48 8.9 93 93 Calm 30.11 1020 1 1 0.00 0.00
6:49 am 06:49 Cloudy with Mist and Fog 50 10 48 9 94 94 Calm 30.13 1020 1 2 0.00 0.00
6:53 am 06:53 Cloudy with Mist and Fog 50 10 49 9.4 96 96 Calm 30.11 1020 1 2 0.00 0.00
7:02 am 07:02 Cloudy with Mist and Fog 51 10.6 49 9.4 92 92 SSE 3 6 30.14 1021 2 3 0.00 0.00
7:07 am 07:07 Cloudy with Mist and Fog 51 10.6 50 10 96 96 Calm 30.14 1021 1 2 0.00 0.00
7:16 am 07:16 Cloudy with Mist and Fog 51 10.6 50 10 96 96 Calm 30.14 1021 1 1 0.00 0.00
7:25 am 07:25 Mostly Cloudy with Mist and Fog 51 10.6 50 10 96 96 Calm 30.14 1021 1 2 0.00 0.00
7:35 am 07:35 Cloudy with Mist and Fog 52 11.1 51 10.6 97 97 Calm 30.13 1020 2 2 0.00 0.00
7:42 am 07:42 Cloudy with Mist and Fog 52 11.1 51 10.6 97 97 Calm 30.13 1020 4 6 0.00 0.00
7:53 am 07:53 Cloudy 52 11.1 51 10.6 97 97 Calm 30.11 1020 10 16 0.00 0.00
8:53 am 08:53 Cloudy 57 13.9 55 12.8 93 93 Calm 30.11 1020 10 16 0.00 0.00
9:53 am 09:53 Sunny 63 17.2 53 11.7 70 70 Calm 30.09 1019 10 16 0.00 0.00
10:53 am 10:53 Sunny 68 20 57 13.9 68 68 VRB 5 7 30.07 1018 10 16 0.00 0.00
11:53 am 11:53 Sunny 73 22.8 59 15 62 62 Calm 30.05 1018 10 16 0.00 0.00
12:53 pm 12:53 Sunny 77 25 63 17.2 62 62 SSW 6 9 30.02 1017 10 16 0.00 0.00
1:53 pm 13:53 Sunny 80 26.7 65 18.3 60 60 SSW 7 11 29.99 1016 10 16 0.00 0.00
2:53 pm 14:53 Sunny 83 28.3 67 19.4 59 59 SW 9 15 29.97 1015 10 16 0.00 0.00
3:53 pm 15:53 Mostly Sunny 83 28.3 67 19.4 59 59 SSW 8 13 29.95 1014 10 16 0.00 0.00
4:53 pm 16:53 Partly Cloudy 84 28.9 67 19.4 57 57 S 7 11 29.93 1013 10 16 0.00 0.00
5:53 pm 17:53 Partly Cloudy 85 29.4 68 20 57 57 SSW 9 15 29.90 1013 10 16 0.00 0.00
6:53 pm 18:53 Partly Cloudy 84 28.9 69 20.6 61 61 S 6 9 29.88 1012 10 16 0.00 0.00
7:53 pm 19:53 Mostly Sunny 79 26.1 71 21.7 77 77 SSE 6 9 29.88 1012 10 16 0.00 0.00
8:53 pm 20:53 Clear 73 22.8 69 20.6 87 87 SE 7 11 29.88 1012 10 16 0.00 0.00
9:53 pm 21:53 Clear 71 21.7 67 19.4 87 87 SE 7 11 29.89 1012 10 16 0.00 0.00
10:53 pm 22:53 Clear 70 21.1 67 19.4 90 90 SE 7 11 29.89 1012 10 16 0.00 0.00
11:53 pm 23:53 Clear 68 20 66 18.9 93 93 SE 3 6 29.88 1012 10 16 0.00 0.00

Powered by AerisWeather